Time,TemperatureF,DewpointF,PressureIn,WindDirection,WindDirectionDegrees,WindSpeedMPH,WindSpeedGustMPH,Humidity,HourlyPrecipIn,Conditions,Clouds,dailyrainin,SoftwareType,DateUTC
2013-03-28 20:14:00,53.4,33.2,30.09,ESE,112,0.0,0.0,46,0.00,,---,0.00,VWS V14.00,2013-03-29 02:14:00,
2013-03-28 20:15:00,53.3,33.1,30.09,ESE,112,0.0,0.0,46,0.00,,---,0.00,VWS V14.00,2013-03-29 02:15:00,
2013-03-28 20:18:00,53.1,32.9,30.09,ESE,111,0.0,1.0,46,0.00,,---,0.00,VWS V14.00,2013-03-29 02:18:00,
2013-03-28 20:21:00,53.0,33.3,30.09,ESE,111,0.0,0.0,47,0.00,,---,0.00,VWS V14.00,2013-03-29 02:21:00,
2013-03-28 20:27:00,52.7,33.0,30.10,ESE,112,0.0,0.0,47,0.00,,---,0.00,VWS V14.00,2013-03-29 02:27:00,
2013-03-28 20:32:00,52.4,33.3,30.11,ESE,111,0.0,1.0,48,0.00,,---,0.00,VWS V14.00,2013-03-29 02:32:00,
2013-03-28 20:37:00,51.9,33.4,30.11,ESE,111,0.0,0.0,49,0.00,,---,0.00,VWS V14.00,2013-03-29 02:37:00,
2013-03-28 20:42:00,51.8,33.3,30.11,ESE,112,0.0,0.0,49,0.00,,---,0.00,VWS V14.00,2013-03-29 02:42:00,
2013-03-28 20:47:00,51.6,33.6,30.11,ESE,112,0.0,0.0,50,0.00,,---,0.00,VWS V14.00,2013-03-29 02:47:00,
2013-03-28 20:53:00,51.4,33.4,30.12,ESE,112,0.0,0.0,50,0.00,,---,0.00,VWS V14.00,2013-03-29 02:53:00,
2013-03-28 20:58:00,51.3,33.3,30.12,ESE,111,0.0,0.0,50,0.00,,---,0.00,VWS V14.00,2013-03-29 02:58:00,
2013-03-28 21:03:00,51.0,33.5,30.12,ESE,111,0.0,0.0,51,0.00,,---,0.00,VWS V14.00,2013-03-29 03:03:00,
2013-03-28 21:09:00,50.8,33.3,30.08,ESE,112,0.0,0.0,51,0.00,,---,0.00,VWS V14.00,2013-03-29 03:09:00,
2013-03-28 21:14:00,50.5,33.1,30.08,ESE,111,0.0,0.0,51,0.00,,---,0.00,VWS V14.00,2013-03-29 03:14:00,
2013-03-28 21:19:00,50.2,33.3,30.09,ESE,111,0.0,0.0,52,0.00,,---,0.00,VWS V14.00,2013-03-29 03:19:00,
2013-03-28 21:24:00,49.9,33.0,30.09,ESE,112,0.0,0.0,52,0.00,,---,0.00,VWS V14.00,2013-03-29 03:24:00,
2013-03-28 21:29:00,49.6,32.7,30.10,ESE,112,0.0,0.0,52,0.00,,---,0.00,VWS V14.00,2013-03-29 03:29:00,
2013-03-28 21:35:00,49.4,32.5,30.10,ESE,112,0.0,0.0,52,0.00,,---,0.00,VWS V14.00,2013-03-29 03:35:00,
2013-03-28 21:40:00,49.3,32.4,30.10,ESE,111,0.0,0.0,52,0.00,,---,0.00,VWS V14.00,2013-03-29 03:40:00,
2013-03-28 21:45:00,49.1,32.7,30.10,ESE,112,0.0,0.0,53,0.00,,---,0.00,VWS V14.00,2013-03-29 03:45:00,
2013-03-28 21:50:00,48.9,32.5,30.10,ESE,112,0.0,0.0,53,0.00,,---,0.00,VWS V14.00,2013-03-29 03:50:00,
2013-03-28 21:55:00,48.7,32.3,30.10,ESE,111,0.0,0.0,53,0.00,,---,0.00,VWS V14.00,2013-03-29 03:55:00,
2013-03-28 22:00:00,48.5,32.6,30.10,ESE,111,0.0,0.0,54,0.00,,---,0.00,VWS V14.00,2013-03-29 04:00:00,
2013-03-28 22:01:00,48.4,32.5,30.10,ESE,111,0.0,0.0,54,0.00,,---,0.00,VWS V14.00,2013-03-29 04:01:00,
2013-03-28 22:03:00,48.3,32.4,30.11,ESE,112,0.0,0.0,54,0.00,,---,0.00,VWS V14.00,2013-03-29 04:03:00,
2013-03-28 22:08:00,48.1,31.8,30.08,ESE,112,0.0,0.0,53,0.00,,---,0.00,VWS V14.00,2013-03-29 04:08:00,
2013-03-28 22:13:00,48.0,31.7,30.08,ESE,111,0.0,0.0,53,0.00,,---,0.00,VWS V14.00,2013-03-29 04:13:00,
2013-03-28 22:15:00,47.9,31.6,30.08,ESE,112,0.0,0.0,53,0.00,,---,0.00,VWS V14.00,2013-03-29 04:15:00,
2013-03-28 22:20:00,47.8,31.5,30.08,ESE,112,0.0,0.0,53,0.00,,---,0.00,VWS V14.00,2013-03-29 04:20:00,
2013-03-28 22:27:00,47.8,32.0,30.09,SE,124,0.0,3.0,54,0.00,,---,0.00,VWS V14.00,2013-03-29 04:27:00,
2013-03-28 22:33:00,48.4,32.1,30.09,South,171,3.0,5.0,53,0.00,,---,0.00,VWS V14.00,2013-03-29 04:33:00,
2013-03-28 22:38:00,48.9,32.1,30.09,South,190,1.0,2.0,52,0.00,,---,0.00,VWS V14.00,2013-03-29 04:38:00,
2013-03-28 22:44:00,49.1,32.2,30.09,SSW,192,0.0,1.0,52,0.00,,---,0.00,VWS V14.00,2013-03-29 04:44:00,
2013-03-28 22:49:00,49.1,32.2,30.09,South,191,0.0,0.0,52,0.00,,---,0.00,VWS V14.00,2013-03-29 04:49:00,
2013-03-28 22:55:00,49.0,32.6,30.09,SSW,192,0.0,1.0,53,0.00,,---,0.00,VWS V14.00,2013-03-29 04:55:00,
2013-03-28 23:00:00,49.0,32.6,30.09,SSW,196,2.0,4.0,53,0.00,,---,0.00,VWS V14.00,2013-03-29 05:00:00,
2013-03-28 23:05:00,49.0,32.6,30.06,SSW,198,0.0,1.0,53,0.00,,---,0.00,VWS V14.00,2013-03-29 05:05:00,
2013-03-28 23:10:00,49.0,32.6,30.06,SSW,198,0.0,0.0,53,0.00,,---,0.00,VWS V14.00,2013-03-29 05:10:00,
2013-03-28 23:15:00,48.9,32.5,30.05,SSW,198,0.0,1.0,53,0.00,,---,0.00,VWS V14.00,2013-03-29 05:15:00,
2013-03-28 23:20:00,48.9,32.5,30.05,SSW,199,0.0,2.0,53,0.00,,---,0.00,VWS V14.00,2013-03-29 05:20:00,
2013-03-28 23:25:00,48.8,32.4,30.05,SSW,199,0.0,2.0,53,0.00,,---,0.00,VWS V14.00,2013-03-29 05:25:00,
2013-03-28 23:30:00,48.8,32.9,30.05,SSW,199,0.0,0.0,54,0.00,,---,0.00,VWS V14.00,2013-03-29 05:30:00,
2013-03-28 23:35:00,48.7,32.8,30.05,SSW,200,0.0,0.0,54,0.00,,---,0.00,VWS V14.00,2013-03-29 05:35:00,
2013-03-28 23:40:00,48.6,32.7,30.05,SSW,200,0.0,0.0,54,0.00,,---,0.00,VWS V14.00,2013-03-29 05:40:00,
2013-03-28 23:45:00,48.5,32.2,30.06,SSW,199,0.0,0.0,53,0.00,,---,0.00,VWS V14.00,2013-03-29 05:45:00,
2013-03-28 23:50:00,48.4,32.1,30.06,SSW,199,0.0,0.0,53,0.00,,---,0.00,VWS V14.00,2013-03-29 05:50:00,
2013-03-28 23:55:00,48.2,32.3,30.06,SSW,199,0.0,1.0,54,0.00,,---,0.00,VWS V14.00,2013-03-29 05:55:00,